Duchifat 3
1 44854U 19089C   25162.81936114  .00035057  00000-0  68062-3 0  9996
2 44854  36.9438 340.9567 0004765 327.5835  32.4629 15.46715364303294
TO-108
1 44881U 19093C   25162.78258979  .00000666  00000-0  82991-4 0  9999
2 44881  97.7925 238.3862 0012855 219.5997 140.4280 14.85604525296401
FloripaSat 1
1 44885U 19093G   25162.81823397  .00003032  00000-0  25837-3 0  9994
2 44885  97.8173 250.4238 0010017 192.2757 167.8223 14.98493160297082
RS-44
1 44909U 19096E   25161.64834521  .00000039  00000-0  12143-3 0  9995
2 44909  82.5217 226.5683 0216325 293.2095  64.6355 12.79740931254827
UPMSat 2
1 46276U 20061E   25162.47226406  .00057010  00000-0  49521-3 0  9998
2 46276  97.2438 236.9175 0002077 161.2258 198.9081 15.68919026265763
SALSAT
1 46495U 20068K   25162.52161817  .00004386  00000-0  19083-3 0  9996
2 46495  97.8599 140.6395 0012267 148.0861 212.1120 15.22760771258823
CubeSX-Sirius-HSE
1 47951U 21022V   25157.62701764  .07883385  25648-5  89537-3 0  9993
2 47951  97.4004  72.1904 0010275 223.9924 136.0557 16.36879307233400
CubeSX-HSE
1 47952U 21022W   25157.69972699  .06655353  25454-5  93288-3 0  9992
2 47952  97.3980  72.5414 0010307 219.3637 140.6911 16.34906352233436
GRBAlpha
1 47959U 21022AD  25160.45426454  .07979523  25524-5  90936-3 0  9994
2 47959  97.3889  75.6219 0010935 224.3674 135.6748 16.36820468232696
TUBIN
1 48900U 21059X   25162.45513860  .00037803  00000-0  45570-3 0  9991
2 48900  97.6743 331.8335 0003525 207.6196 152.4874 15.60695692220331
LEDSAT
1 49069U 21073D   25162.74268573  .00050713  00000-0  60176-3 0  9998
2 49069  97.3891 244.3700 0009374  78.1767 282.0541 15.61000126211778
CUTE
1 49263U 21088D   25162.16955597  .00014302  00000-0  28543-3 0  9991
2 49263  97.4534 238.4709 0007464 226.8323 133.2304 15.46929039204671
TeikyoSat 4
1 49396U 21102B   25162.14402031  .00001292  00000-0  88589-4 0  9994
2 49396  97.4097 200.5162 0013921 124.1701 236.0849 15.07645806196782
Z-Sat
1 49399U 21102E   25162.79915440  .00003466  00000-0  19129-3 0  9999
2 49399  97.3794 204.2567 0019870  96.4655 263.8841 15.14425857197316
KOSEN 1
1 49402U 21102H   25162.64535571  .00004434  00000-0  20631-3 0  9997
2 49402  97.3698 207.5381 0017521  74.7039 285.6131 15.20314676197609
HO-113
1 50466U 21131B   25162.84424450  .00000366  00000-0  12819-3 0  9995
2 50466  98.5104 252.1859 0005308 122.6758 237.4943 14.40816710181777
Foresail-1
1 52766U 22057AL  25162.85496754  .00458545  94106-4  85460-3 0  9997
2 52766  97.6048 315.2745 0009419 250.1898 109.8365 16.00954528170263
SNUGLITE 2
1 52899U 22065F   25161.85778733  .00000812  00000-0  16677-3 0  9992
2 52899  98.1689 303.8186 0008907 107.6314 252.5862 14.63216148156672
UmKA 1 (RS40S)
1 57172U 23091G   25162.85192592  .00003792  00000-0  20412-3 0  9997
2 57172  97.5576 218.2218 0013357 332.3969  27.6552 15.15378226107826
CubeBel-2 (EU11S)
1 57175U 23091K   25162.80993288  .00007019  00000-0  33468-3 0  9997
2 57175  97.5576 219.3395 0011165 341.9348  18.1488 15.19360543107896
VERONIKA
1 58261U 23174F   25162.81511075  .00128896  00000-0  10194-2 0  9994
2 58261  97.4118 249.1234 0000907  63.8480 296.2876 15.70958728 89036
ENSO
1 58470U 23185J   25162.82397162  .00046871  00000-0  67033-3 0  9995
2 58470  97.3738 238.0141 0007400  84.4405 275.7694 15.56059358 85389
EIRSAT-1
1 58472U 23185L   25162.81501111  .00093178  00000-0  83976-3 0  9993
2 58472  97.3690 239.9454 0004497  98.6813 261.4958 15.67877164 85513
SONATE-2
1 59112U 24043Q   25162.31906207  .00012969  00000-0  37349-3 0  9991
2 59112  97.5143 293.5310 0012321 108.4532 251.8052 15.35814131 70602
MO-122
1 60209U 24125G   25162.00747091  .00012668  00000-0  35942-3 0  9994
2 60209  97.2787  13.6102 0020202 129.8277 230.4749 15.36145745 52179
GRBBeta
1 60237U 24128C   25162.19993197  .00003389  00000-0  26136-3 0  9993
2 60237  61.9925  73.9103 0052131  57.9302 302.6836 15.02644093 50448
Curium One
1 60242U 24128H   25162.16737871  .00005978  00000-0  41997-3 0  9999
2 60242  61.9825  72.2939 0052056  54.0161 306.5741 15.05127862 50473
ROBUSTA-3A
1 60243U 24128J   25162.17053805  .00006019  00000-0  42862-3 0  9998
2 60243  61.9896  73.1163 0050859  51.6978 308.8671 15.04659601 50465
CatSat
1 60246U 24125J   25162.52245811  .00007603  00000-0  25355-3 0  9995
2 60246  97.2580  13.3119 0044210  87.7954 272.8349 15.30397880 50284
HYPERVIEW-1G (RS66S)
1 61772U 24199AP  25162.89170994  .00015430  00000-0  44703-3 0  9995
2 61772  97.3529  31.7453 0013844 176.6450 183.4889 15.35558307 77313
AO-123
1 61781U 24199AY  25162.87149440  .00004721  00000-0  17296-3 0  9993
2 61781  97.3543  30.5885 0015670 183.2923 176.8216 15.28385220 77238
ZIMSAT 2
1 61783U 24199BA  25162.87121053  .00027954  00000-0  68098-3 0  9994
2 61783  97.3505  32.3548 0013940 173.0304 187.1139 15.40784854 80505
HADES-R (SO-124)
1 62690U 25009CK  25161.78781389  .00021489  00000-0  75931-3 0  9997
2 62690  97.4098 242.5876 0004212 105.5638 254.6068 15.29208821 22332
HYDRA-T
1 62692U 25009CM  25161.18425475  .00026998  00000-0  94602-3 0  9990
2 62692  97.4100 242.0199 0003892 104.7738 255.3933 15.29436660 22249
JINJUSat 1B
1 63210U 25052A   25162.17474333  .00008196  00000-0  37609-3 0  9996
2 63210  97.4425  56.2780 0003234 344.3965  15.7170 15.20674995 13495
NUSHSAT 1
1 63211U 25052B   25162.16943714  .00008947  00000-0  40751-3 0  9996
2 63211  97.4415  56.2741 0003404 351.4631   8.6546 15.20903195 13495
TEVEL2-4
1 63213U 25052D   25162.44656884  .00009031  00000-0  41481-3 0  9994
2 63213  97.4329  56.4216 0003305  14.7650 345.3681 15.20610021 13539
TEVEL2-5
1 63214U 25052E   25162.44717785  .00008930  00000-0  41046-3 0  9997
2 63214  97.4328  56.4211 0003299  15.4076 344.7259 15.20591124 13532
TEVEL2-6
1 63215U 25052F   25161.92289959  .00008476  00000-0  39032-3 0  9994
2 63215  97.4333  55.9005 0003453  16.6500 343.4848 15.20540478 13458
TEVEL2-1
1 63217U 25052H   25162.65814989  .00008158  00000-0  37802-3 0  9994
2 63217  97.4303  56.5711 0003968  24.7965 335.3460 15.20336148 13563
TEVEL2-2
1 63218U 25052J   25162.65845256  .00008100  00000-0  37535-3 0  9996
2 63218  97.4302  56.5714 0004040  25.3576 334.7857 15.20336128 13564
TEVEL2-3
1 63219U 25052K   25162.65857930  .00008131  00000-0  37685-3 0  9999
2 63219  97.4305  56.5712 0004022  25.2645 334.8786 15.20330894 13568
TEVEL2-8
1 63237U 25052AD  25161.93525385  .00007627  00000-0  36607-3 0  9997
2 63237  97.4369  55.7771 0008729  23.7811 336.3825 15.19115144 13445
TEVEL2-9
1 63238U 25052AE  25162.46462420  .00007998  00000-0  38423-3 0  9996
2 63238  97.4369  56.2941 0008750  21.8868 338.2738 15.19065122 13529
TEVEL2-7
1 63239U 25052AF  25161.93963097  .00007429  00000-0  35762-3 0  9996
2 63239  97.4374  55.7719 0008854  23.8922 336.2722 15.19021951 13445
HYDRA-W
1 63490U 25052BL  25162.64777033  .00018445  00000-0  77757-3 0  9997
2 63490  97.4317  56.7541 0012126  16.4168 343.7459 15.23305708 13576
HADES-ICM (SO-125)
1 63492U 25052BN  25162.46617980  .00019494  00000-0  83196-3 0  9992
2 63492  97.4316  56.5443 0012463  20.2964 339.8766 15.22871946 13542
